Location: Unspecified
(42.9300°N, 71.1866°W)
Time: 02:57:10
(UTC-04:00)

Genesis I - Visible Passes

Search period start: 22 July 2017 00:00
Search period end: 01 August 2017 00:00
Orbit: 502 x 529 km, 64.5° (Epoch: 21 July)

Date Brightness Start Highest point End Pass type
(mag) Time Alt. Az. Time Alt. Az. Time Alt. Az.
22 Jul 3.8 01:58:27 10° NNW 02:02:23 55° NE 02:02:25 55° NE visible
23 Jul 4.0 01:42:35 10° NNW 01:45:59 51° NNE 01:45:59 51° NNE visible
24 Jul 4.3 01:26:43 10° NNW 01:29:44 44° N 01:29:44 44° N visible
25 Jul 4.5 01:10:50 10° NNW 01:13:36 40° N 01:13:36 40° N visible
25 Jul 6.2 23:20:00 10° NNE 23:20:25 10° NNE 23:20:50 10° NE visible
26 Jul 4.6 00:54:58 10° NNW 00:57:35 37° N 00:57:35 37° N visible
26 Jul 6.1 23:03:56 10° NNE 23:04:34 10° NE 23:05:12 10° NE visible
27 Jul 4.7 00:39:05 10° NNW 00:41:39 36° NNW 00:41:39 36° NNW visible
27 Jul 6.1 22:47:55 10° NNE 22:48:42 10° NE 22:49:29 10° NE visible
28 Jul 4.7 00:23:12 10° NNW 00:25:47 37° NNW 00:25:47 37° NNW visible
28 Jul 6.0 22:31:57 10° NNE 22:32:51 11° NE 22:33:44 10° NE visible
29 Jul 4.6 00:07:19 10° NNW 00:09:57 38° NNW 00:09:57 38° NNW visible
29 Jul 5.9 22:15:58 10° NNE 22:16:59 11° NE 22:17:59 10° NE visible
29 Jul 4.5 23:51:27 10° NNW 23:54:12 41° NNW 23:54:12 41° NNW visible
30 Jul 5.9 22:00:01 10° NNE 22:01:07 11° NE 22:02:13 10° NE visible
30 Jul 4.3 23:35:34 10° NNW 23:38:29 45° NNW 23:38:29 45° NNW visible
31 Jul 5.8 21:44:03 10° NNE 21:45:15 11° NE 21:46:27 10° NE visible
31 Jul 4.0 23:19:41 10° NNW 23:22:48 50° N 23:22:48 50° N visible
